Content
SEND FEEDBACK

Daily
Averages
Monthly
Summary
United States of America

RAPID CITY, SOUTH DAKOTA


Home > North America > United States > South Dakota
Elevation: 3162 feet     Latitude: 44 03N     Longitude: 103 04W

WEATHER
 
SELECT A DAY
Number of Records: 204,365;   Date Range: 1/1/95 - 11/26/14
 
SHARE

PRINT THIS DATA

[ ← Previous Day ]
WEATHER ALMANAC - APRIL 21, 2013
[ Next Day → ]
[ °C ]   °F
Weather ElementAverageHighLow
Temperature38.8 °F48 °F (10:52 am)32 °F (10:52 pm)
Dewpoint33.8 °F39.9 °F (10:52 am)30.2 °F (10:06 pm)
Humidity82.7 %96 % (10:52 pm)67 % (3:52 pm)
Barometer30.08 in30.17 in (9:52 pm)29.93 in (2:52 am)
Wind Speed10.9 mph25.3 mph (11:52 am)
Wind Gust36.8 mph (1:24 am)
Weather ElementAverage
Visibility7.5 mi
Wind DirectionSSE (161.3 °)

Weather ElementTotal
Precipitation0.65 in
Heating Degree Days25 (Base 65)
Averaged from 38 records on April 21, 2013
WEATHER CONDITIONS BREAKOUT
WIND DIRECTION BREAKOUT
WEATHER BY HOUR - APRIL 21, 2013
[ °C ]   °F
Local TimeTemperatureDewpointHumidityBarometerVisibilityWind DirectionWind SpeedGust SpeedPrecipitationEventsConditions
1:24 AM42.8 °F35.6 °F76 %29.94 in10.0 miNNW (340°)18.4 mph36.8 mph0.00 inRainLight Rain
1:52 AM41.0 °F35.1 °F79 %29.95 in10.0 miNNW (340°)19.6 mph0.00 inOvercast
2:52 AM39.0 °F34.0 °F82 %29.93 in10.0 miWNW (300°)8.1 mphPartly Cloudy
3:52 AM37.9 °F33.1 °F83 %29.94 in10.0 miWest (260°)4.6 mphClear
4:52 AM37.0 °F34.0 °F89 %29.96 in10.0 miWest (260°)4.6 mphPartly Cloudy
5:52 AM37.0 °F34.0 °F89 %29.98 in10.0 miWNW (300°)5.8 mphMostly Cloudy
6:52 AM42.1 °F36.0 °F79 %29.99 in10.0 miCalmMostly Cloudy
7:52 AM45.0 °F37.0 °F74 %30.01 in10.0 miNorth (350°)5.8 mphScattered Clouds
8:52 AM45.0 °F37.9 °F76 %30.04 in10.0 miNorth (350°)12.7 mphMostly Cloudy
9:52 AM46.9 °F39.0 °F74 %30.05 in10.0 miNorth (350°)20.7 mph28.8 mphMostly Cloudy
10:52 AM48.0 °F39.9 °F74 %30.05 in10.0 miNorth (10°)23.0 mph28.8 mphOvercast
11:52 AM46.9 °F39.0 °F74 %30.06 in10.0 miNorth (10°)25.3 mph29.9 mphMostly Cloudy
12:52 PM44.1 °F37.0 °F76 %30.08 in10.0 miNorth (360°)23.0 mph0.00 inRainLight Rain
1:17 PM41.0 °F35.6 °F81 %30.06 in10.0 miNorth (360°)20.7 mph0.00 inOvercast
1:52 PM41.0 °F35.1 °F79 %30.12 in10.0 miNorth (10°)20.7 mph27.6 mph0.00 inOvercast
2:33 PM42.8 °F33.8 °F70 %30.07 in10.0 miNorth (10°)16.1 mphOvercast
2:45 PM42.8 °F33.8 °F70 %30.07 in10.0 miNorth (360°)11.5 mphOvercast
2:52 PM43.0 °F34.0 °F71 %30.13 in10.0 miNNE (20°)13.8 mphOvercast
3:52 PM42.1 °F32.0 °F67 %30.14 in10.0 miNorth (350°)13.8 mphOvercast
4:52 PM41.0 °F32.0 °F70 %30.14 in10.0 miNorth (360°)11.5 mphOvercast
5:52 PM39.0 °F34.0 °F82 %30.16 in10.0 miNorth (360°)10.4 mph0.01 inRainLight Rain
6:49 PM37.4 °F33.8 °F87 %30.10 in9.0 miNNE (20°)9.2 mph0.02 inRainLight Rain
6:52 PM37.9 °F34.0 °F86 %30.16 in8.0 miNNE (30°)9.2 mph0.02 inRainLight Rain
7:05 PM37.4 °F33.8 °F87 %30.10 in10.0 miNE (40°)6.9 mph0.00 inRainLight Rain
7:52 PM37.9 °F34.0 °F86 %30.15 in10.0 miEast (90°)5.8 mph0.01 inRainLight Rain
8:52 PM37.0 °F34.0 °F89 %30.14 in10.0 miEast (80°)3.5 mph0.01 inRainLight Rain
9:38 PM37.4 °F33.8 °F87 %30.12 in5.0 miEast (100°)4.6 mph0.03 inRainLight Rain
9:52 PM35.1 °F32.0 °F89 %30.17 in4.0 miEast (90°)5.8 mph0.05 inSnowLight Snow
10:06 PM33.8 °F30.2 °F87 %30.13 in5.0 miNE (50°)4.6 mph0.02 inSnowLight Snow
10:30 PM33.8 °F32.0 °F93 %30.12 in2.5 miENE (70°)4.6 mph0.03 inSnowLight Snow
10:40 PM33.8 °F30.2 °F87 %30.12 in1.0 miENE (60°)5.8 mph0.05 inSnowLight Snow
10:47 PM33.8 °F30.2 °F87 %30.11 in0.8 miENE (60°)6.9 mph0.07 inSnowLight Snow
10:52 PM32.0 °F30.9 °F96 %30.17 in1.0 miENE (60°)5.8 mph0.08 inSnowLight Snow
11:00 PM32.0 °F30.2 °F93 %30.11 in1.0 miNE (50°)8.1 mph0.01 inSnowLight Snow
11:09 PM32.0 °F30.2 °F93 %30.10 in0.8 miENE (60°)6.9 mph0.03 inSnowLight Snow
11:33 PM32.0 °F30.2 °F93 %30.09 in1.5 miENE (70°)11.5 mph0.07 inSnowLight Snow
11:40 PM32.0 °F30.2 °F93 %30.09 in2.5 miENE (70°)13.8 mph0.07 inSnowLight Snow
11:52 PM32.0 °F30.9 °F96 %30.15 in2.0 miENE (70°)12.7 mph0.07 inSnowLight Snow
Hourly data recorded from KRAP, located miles away from Rapid City, South Dakota







STORIES FROM OUR PARTNERS